Location: *
(28.2408°N, 53.4600°E)
Time: 16:12:07
(UTC+00:00)

YAOGAN 6 - Pass Details

Date: 22 September 2019
Orbit: 466 x 505 km, 97.0° (Epoch: 20 October)

Event Time Altitude Azimuth Distance (km) Brightness Sun altitude
Rises 14:53:31 0° 166° (SSE) 2,556 6.0 -7.5°
Reaches altitude 10° 14:55:34 10° 165° (SSE) 1,684 5.1 -7.9°
Maximum altitude 14:59:11 79° 79° (E) 512 2.5 -8.7°
Drops below altitude 10° 15:02:53 10° 352° (N) 1,711 5.5 -9.5°
Sets 15:04:58 0° 351° (N) 2,602 6.5 -10.0°
